STARLINK-11734, 64329

Orbit data source: Space-Track

STARLINK-11734, 64329 is a payload satellite owned by SpaceX/Seattle (US) in LEO that was launched on Tue, 10 Jun 2025 UTC via an FALCON 9 launch vehicle from the Air Force Eastern Test Range (AFETR). Payload-class satellites include a variety of spacecraft equipped with specific instruments for various scientific and technological missions. These include communications satellites like Starlink; space stations such as the ISS; scientific satellites like the Hubble; Earth observation satellites from companies like Planet Labs, Umbra, and HawkEye 360; GPS; miniature CubeSats for education and research; and military/defense satellites.

Loading next visibility...
Identifier
64329, 2025-124N
Orbit
LEO
Country
Flag of USUS
Related business
Manufacturer
SpaceX/Seattle
Mission
Operational Commercial Communications
Bus & Motor
STARLINK V2MD, Unknown motor
Mass
960 kg wet, ~910 kg dry
Launch date (UTC)
2025-06-10 (11 months ago)
Launch vehicle
FALCON 9
Launch site
Air Force Eastern Test Range (AFETR)
Object type
Payload
Rocket body
Debris
Shape & HBR
Box + 2 Pan, 18.1 m
Radar Cross Section
36.964 m², Large (>1 m²)

Expand to show TLE details & history
Last TLE update: 8 hours ago

TLE from 8 hours ago
0 STARLINK-11734
1 64329U 25124N   26119.90081265  .00242569  00000-0  18339-2 0  9992
2 64329  42.9999  80.0724 0001927 266.7919  93.2728 15.70909520 50899
Epoch: 2026-04-29T21:37Z
TLE epoch observation values (Epoch: 2026-04-29T21:37:10.212Z)
Latitude
-0.00005°
Longitude
-102.07534°
Altitude
356.142 km
Speed
7.697 km/s
True Right ascension
05h 20m 17s
True Declination
0° 00' 00"
Sunlit
Object was in daylight at epoch
Visualization orbit readout
Latitude
Unknown
Longitude
Unknown
Altitude
Unknown
Speed
Unknown
Apparent Right ascension
Unknown
Apparent Declination
Unknown
Sunlit
N/A
Visualization observer readout
Local Sidereal Time
13:39:25
Azimuth
Unknown
Elevation
Unknown
Doppler factor
Unknown
Orbital elements
Apogee altitude
359.576 km
Perigee altitude
356.98 km
Semi-major axis
6,736.415 km
Eccentricity
0.00019
Inclination
42.9999°
RAAN
80.0724°
Arg. of periapsis
266.7919°
True anomaly
93.29485°
Mean anomaly
93.2728°
Eccentric anomaly
93.28382°
Mean motion
3.92554 °/min
Orbital period
91.71 mins
BSTAR
0.0018339
Loading maneuver chart data...
Computing Atmospheric mass density...
Loading historical data...
Loading historical data...
Loading historical data...
Loading historical data...
Loading historical data...
Loading historical data...
Loading historical data...

Documentation

Showing up to 5 results
|